Newark, NJ

5:15 AM EDT on August 24, 2017 (GMT -0400)
Newark International

Weather History for KEWR - May, 2013

Change the Weather History Date:

Wednesday, May 22, 2013

  Actual Average Record
Temperature  
Mean Temperature 72 °F 64 °F  
Max Temperature 81 °F 74 °F 98 °F (1992)
Min Temperature 62 °F 55 °F 44 °F (1957)
Degree Days  
Heating Degree Days 0 3  
Month to date heating degree days 109 114  
Since 1 July heating degree days 4599 4834  
Cooling Degree Days 7 3  
Month to date cooling degree days 40 32  
Year to date cooling degree days 43 44  
Growing Degree Days 22 (Base 50)    
Moisture  
Dew Point 64 °F    
Average Humidity 80    
Maximum Humidity 90    
Minimum Humidity 69    
Precipitation  
Precipitation T in 0.15 in 1.11 in (1949)
Month to date precipitation 3.95 2.81  
Year to date precipitation 14.76 17.61  
Snow  
Snow 0.00 in 0.00 in 0.00 in (2002)
Month to date snowfall 0.0 0.0  
Since 1 July snowfall 29.5 28.5  
Snow Depth 0.00 in    
Sea Level Pressure  
Sea Level Pressure 29.89 in    
Wind  
Wind Speed 5 mph (ESE)    
Max Wind Speed 14 mph    
Max Gust Speed 20 mph    
Visibility 6 miles    
Events      
T = Trace of Precipitation, MM = Missing Value Source: NWS Daily Summary

Daily Weather History Graph

Daily Weather History Graph

Search for Another Location

Airport or City:

Trip Planner

Search our weather history database for the weather conditions in past years. The results will help you decide how hot, cold, wet, or windy it might be!

Date:

Astronomy

May. 22, 2013 Rise Set
Actual Time 5:33 AM EDT 8:13 PM EDT
Civil Twilight 5:01 AM EDT 8:45 PM EDT
Nautical Twilight 4:22 AM EDT 9:25 PM EDT
Astronomical Twilight 3:37 AM EDT 10:10 PM EDT
Moon 5:32 PM EDT (5/22) 3:36 AM EDT (5/22)
Length of Visible Light 15h 43m
Length of Day
14h 40m
Waxing Gibbous, 91% of the Moon is Illuminated
May 22
Waxing Gibbous
May 25
Full
May 31
Last Quarter
Jun 8
New
Jun 16
First Quarter

Hourly Weather History & Observations

Time (EDT) Temp. Dew Point Humidity Pressure Visibility Wind Dir Wind Speed Gust Speed Precip Events Conditions
12:51 AM 75.0 °F 66.9 °F 76% 29.87 in 10.0 mi SW 11.5 mph - N/A   Partly Cloudy
1:51 AM 73.0 °F 66.9 °F 81% 29.86 in 10.0 mi SW 10.4 mph - N/A   Scattered Clouds
2:51 AM 73.0 °F 66.9 °F 81% 29.85 in 10.0 mi SSW 9.2 mph - N/A   Scattered Clouds
3:51 AM 72.0 °F 66.9 °F 84% 29.86 in 10.0 mi SW 10.4 mph - N/A   Mostly Cloudy
4:51 AM 71.1 °F 66.9 °F 87% 29.86 in 10.0 mi Calm Calm - N/A   Mostly Cloudy
5:51 AM 69.1 °F 64.0 °F 84% 29.88 in 8.0 mi East 8.1 mph - N/A   Mostly Cloudy
6:51 AM 63.0 °F 59.0 °F 87% 29.92 in 7.0 mi NNE 9.2 mph - N/A   Overcast
7:51 AM 63.0 °F 59.0 °F 87% 29.93 in 6.0 mi NNE 5.8 mph - N/A   Overcast
8:09 AM 62.6 °F 59.0 °F 88% 29.94 in 6.0 mi NE 3.5 mph - N/A   Overcast
8:51 AM 63.0 °F 59.0 °F 87% 29.94 in 4.0 mi ESE 3.5 mph - N/A   Overcast
8:53 AM 62.6 °F 59.0 °F 88% 29.93 in 2.0 mi East 5.8 mph - N/A   Overcast
9:12 AM 62.6 °F 60.8 °F 94% 29.93 in 1.0 mi ESE 4.6 mph - N/A   Overcast
9:47 AM 64.4 °F 60.8 °F 88% 29.93 in 1.0 mi East 4.6 mph - 0.00 in   Light Drizzle
9:51 AM 63.0 °F 60.1 °F 90% 29.93 in 1.0 mi Variable 3.5 mph - 0.00 in   Light Drizzle
10:51 AM 64.0 °F 60.1 °F 87% 29.94 in 1.0 mi Calm Calm - 0.00 in   Light Drizzle
10:55 AM 64.4 °F 60.8 °F 88% 29.93 in 2.0 mi NE 3.5 mph - 0.00 in   Haze
11:02 AM 64.4 °F 60.8 °F 88% 29.93 in 1.5 mi Calm Calm - 0.00 in   Overcast
11:41 AM 66.2 °F 60.8 °F 83% 29.92 in 1.5 mi Calm Calm - 0.00 in   Haze
11:51 AM 66.9 °F 61.0 °F 81% 29.92 in 2.5 mi Calm Calm - 0.00 in   Haze
12:51 PM 71.1 °F 62.1 °F 73% 29.91 in 2.5 mi NE 3.5 mph - N/A   Haze
1:51 PM 73.0 °F 64.9 °F 76% 29.89 in 2.5 mi Calm Calm - N/A   Haze
2:36 PM 73.4 °F 64.4 °F 73% 29.88 in 5.0 mi Calm Calm - N/A   Haze
2:51 PM 75.0 °F 64.0 °F 69% 29.88 in 6.0 mi Variable 3.5 mph - N/A   Haze
3:47 PM 78.8 °F 69.8 °F 74% 29.86 in 5.0 mi SSE 6.9 mph - N/A   Haze
3:51 PM 78.1 °F 68.0 °F 71% 29.86 in 5.0 mi SSW 8.1 mph - N/A   Haze
4:51 PM 79.0 °F 68.0 °F 69% 29.85 in 6.0 mi SE 6.9 mph - N/A   Haze
5:51 PM 78.1 °F 68.0 °F 71% 29.83 in 7.0 mi East 5.8 mph - N/A   Mostly Cloudy
6:51 PM 77.0 °F 66.0 °F 69% 29.83 in 9.0 mi East 4.6 mph - N/A   Mostly Cloudy
7:51 PM 73.9 °F 64.9 °F 73% 29.84 in 9.0 mi East 4.6 mph - N/A   Mostly Cloudy
8:51 PM 71.1 °F 64.0 °F 78% 29.85 in 10.0 mi NE 4.6 mph - N/A   Mostly Cloudy
9:51 PM 73.9 °F 64.0 °F 71% 29.88 in 10.0 mi Calm Calm - N/A   Mostly Cloudy
10:51 PM 75.0 °F 68.0 °F 79% 29.88 in 10.0 mi South 8.1 mph - N/A   Mostly Cloudy
11:51 PM 75.0 °F 68.0 °F 79% 29.88 in 10.0 mi South 6.9 mph - N/A   Mostly Cloudy